"read_dt","SO2 (ppb)","flags","PMT voltage (V)","lamp voltage (V)","lamp intensity (Hz)","internal temp (C)","react chamber temp (C)","sample flow (l/min)","pres (mmHg)","SO2 bkg (ppb)","SO2 coefficient"
2016-01-02 00:00:00,2418E-3,5C000000,-0724,0832,12291,016.5,045.2,0.275,738.1,01.18,0.508
2016-01-02 00:01:00,2383E-3,5C000000,-0724,0832,12153,016.5,045.2,0.275,738.2,01.18,0.508
2016-01-02 00:02:00,2338E-3,5C000000,-0724,0831,12231,016.6,045.2,0.275,738.2,01.18,0.508
2016-01-02 00:03:00,2271E-3,5C000000,-0724,0832,12154,016.5,045.2,0.275,738.2,01.18,0.508
2016-01-02 00:04:00,2371E-3,5C000000,-0724,0832,12051,016.5,045.2,0.275,738.0,01.18,0.508
2016-01-02 00:05:00,2412E-3,5C000000,-0724,0832,12187,016.5,045.2,0.275,738.2,01.18,0.508
2016-01-02 00:06:00,2337E-3,5C000000,-0724,0832,12148,016.6,045.2,0.275,738.2,01.18,0.508
2016-01-02 00:07:00,2408E-3,5C000000,-0724,0832,12085,016.6,045.2,0.275,738.0,01.18,0.508
2016-01-02 00:08:00,2258E-3,5C000000,-0724,0832,12100,016.6,045.2,0.275,738.2,01.18,0.508
2016-01-02 00:09:00,2410E-3,5C000000,-0724,0833,12153,016.6,045.2,0.275,738.1,01.18,0.508
2016-01-02 00:10:00,2345E-3,5C000000,-0724,0832,12062,016.6,045.2,0.275,737.9,01.18,0.508
2016-01-02 00:11:00,2423E-3,5C000000,-0724,0832,12225,016.6,045.2,0.275,738.2,01.18,0.508
2016-01-02 00:12:00,2365E-3,5C000000,-0724,0832,12166,016.6,045.2,0.276,738.1,01.18,0.508
2016-01-02 00:13:00,2304E-3,5C000000,-0724,0833,12328,016.6,045.2,0.275,738.0,01.18,0.508
2016-01-02 00:14:00,2312E-3,5C000000,-0724,0832,12251,016.6,045.2,0.275,738.0,01.18,0.508
2016-01-02 00:15:00,2319E-3,5C000000,-0724,0832,12258,016.6,045.2,0.276,737.8,01.18,0.508
2016-01-02 00:16:00,2193E-3,5C000000,-0724,0832,12180,016.6,045.2,0.276,737.9,01.18,0.508
2016-01-02 00:17:00,2386E-3,5C000000,-0724,0832,12169,016.6,045.2,0.275,737.9,01.18,0.508
2016-01-02 00:18:00,2421E-3,5C000000,-0724,0833,12035,016.6,045.2,0.275,737.9,01.18,0.508
2016-01-02 00:19:00,2309E-3,5C000000,-0724,0832,12059,016.6,045.2,0.275,738.0,01.18,0.508
2016-01-02 00:20:00,2390E-3,5C000000,-0724,0832,12268,016.6,045.2,0.275,737.8,01.18,0.508
2016-01-02 00:21:00,2411E-3,5C000000,-0724,0832,12105,016.6,045.2,0.275,737.7,01.18,0.508
2016-01-02 00:22:00,2393E-3,5C000000,-0724,0833,12160,016.6,045.2,0.275,737.9,01.18,0.508
2016-01-02 00:23:00,2448E-3,5C000000,-0724,0833,12204,016.6,045.2,0.276,737.6,01.18,0.508
2016-01-02 00:24:00,2450E-3,5C000000,-0724,0833,12125,016.6,045.2,0.275,737.8,01.18,0.508
2016-01-02 00:25:00,2342E-3,5C000000,-0724,0832,12103,016.6,045.2,0.275,737.8,01.18,0.508
2016-01-02 00:26:00,2378E-3,5C000000,-0724,0832,12143,016.6,045.2,0.275,737.8,01.18,0.508
2016-01-02 00:27:00,2405E-3,5C000000,-0724,0832,12298,016.6,045.2,0.275,737.8,01.18,0.508
2016-01-02 00:28:00,2339E-3,5C000000,-0724,0832,11926,016.6,045.2,0.275,737.9,01.18,0.508
2016-01-02 00:29:00,2343E-3,5C000000,-0724,0832,11985,016.6,045.2,0.275,737.7,01.18,0.508
2016-01-02 00:30:00,2284E-3,5C000000,-0724,0832,12236,016.6,045.2,0.275,737.8,01.18,0.508
2016-01-02 00:31:00,2449E-3,5C000000,-0724,0833,12294,016.6,045.2,0.275,737.7,01.18,0.508
2016-01-02 00:32:00,2447E-3,5C000000,-0724,0832,12086,016.6,045.2,0.275,737.7,01.18,0.508
2016-01-02 00:33:00,2323E-3,5C000000,-0724,0833,12279,016.6,045.2,0.275,737.9,01.18,0.508
2016-01-02 00:34:00,2458E-3,5C000000,-0724,0832,12242,016.6,045.2,0.275,737.7,01.18,0.508
2016-01-02 00:35:00,2421E-3,5C000000,-0724,0831,12201,016.6,045.2,0.275,737.7,01.18,0.508
2016-01-02 00:36:00,2457E-3,5C000000,-0724,0833,12310,016.6,045.2,0.275,737.9,01.18,0.508
2016-01-02 00:37:00,2369E-3,5C000000,-0724,0831,12277,016.6,045.2,0.275,737.7,01.18,0.508
2016-01-02 00:38:00,2525E-3,5C000000,-0724,0831,11968,016.6,045.2,0.275,737.7,01.18,0.508
2016-01-02 00:39:00,2358E-3,5C000000,-0724,0833,12280,016.6,045.2,0.275,737.7,01.18,0.508
2016-01-02 00:40:00,2258E-3,5C000000,-0724,0832,12021,016.6,045.2,0.275,737.8,01.18,0.508
2016-01-02 00:41:00,2360E-3,5C000000,-0724,0833,12209,016.6,045.2,0.275,737.8,01.18,0.508
2016-01-02 00:42:00,2346E-3,5C000000,-0724,0833,12220,016.6,045.2,0.275,737.9,01.18,0.508
2016-01-02 00:43:00,2253E-3,5C000000,-0724,0833,12213,016.6,045.2,0.275,737.9,01.18,0.508
2016-01-02 00:44:00,2537E-3,5C000000,-0724,0832,12147,016.6,045.2,0.275,737.7,01.18,0.508
2016-01-02 00:45:00,2323E-3,5C000000,-0724,0832,12007,016.6,045.2,0.275,737.9,01.18,0.508
2016-01-02 00:46:00,2300E-3,5C000000,-0724,0832,12192,016.6,045.2,0.275,737.8,01.18,0.508
2016-01-02 00:47:00,2354E-3,5C000000,-0724,0832,12231,016.6,045.2,0.275,737.9,01.18,0.508
2016-01-02 00:48:00,2530E-3,5C000000,-0724,0832,12132,016.6,045.2,0.275,737.8,01.18,0.508
2016-01-02 00:49:00,2441E-3,5C000400,-0724,0832,12133,016.6,045.2,0.274,737.9,01.18,0.508
2016-01-02 00:50:00,2334E-3,5C000000,-0724,0832,12090,016.7,045.2,0.275,737.8,01.18,0.508
2016-01-02 00:51:00,2299E-3,5C000000,-0724,0831,12121,016.6,045.2,0.275,737.9,01.18,0.508
2016-01-02 00:52:00,2365E-3,5C000000,-0724,0833,12166,016.7,045.2,0.275,737.9,01.18,0.508
2016-01-02 00:53:00,2543E-3,5C000000,-0724,0832,12291,016.7,045.2,0.275,737.9,01.18,0.508
2016-01-02 00:54:00,2254E-3,5C000000,-0724,0832,12225,016.7,045.2,0.275,738.0,01.18,0.508
2016-01-02 00:55:00,2349E-3,5C000400,-0724,0832,12156,016.7,045.2,0.274,738.0,01.18,0.508
2016-01-02 00:56:00,2388E-3,5C000000,-0724,0832,12240,016.7,045.2,0.275,737.9,01.18,0.508
2016-01-02 00:57:00,2405E-3,5C000000,-0724,0831,12248,016.7,045.2,0.275,737.9,01.18,0.508
2016-01-02 00:58:00,2345E-3,5C000000,-0724,0832,12185,016.7,045.2,0.275,737.8,01.18,0.508
2016-01-02 00:59:00,2233E-3,5C000000,-0724,0832,12294,016.7,045.2,0.275,737.7,01.18,0.508
2016-01-02 01:00:00,2379E-3,5C000000,-0724,0833,12206,016.7,045.2,0.275,737.8,01.18,0.508
2016-01-02 01:01:00,2387E-3,5C000000,-0724,0833,12028,016.7,045.2,0.275,737.7,01.18,0.508
2016-01-02 01:02:00,2218E-3,5C000000,-0724,0832,12178,016.7,045.2,0.275,737.6,01.18,0.508
2016-01-02 01:03:00,2359E-3,5C000000,-0724,0833,12062,016.7,045.2,0.275,737.6,01.18,0.508
2016-01-02 01:04:00,2462E-3,5C000000,-0724,0833,11985,016.7,045.2,0.275,737.6,01.18,0.508
2016-01-02 01:05:00,2323E-3,5C000000,-0724,0832,12218,016.7,045.2,0.275,737.5,01.18,0.508
2016-01-02 01:06:00,2333E-3,5C000000,-0724,0833,12162,016.7,045.2,0.275,737.5,01.18,0.508
2016-01-02 01:07:00,2417E-3,5C000000,-0724,0832,12207,016.7,045.2,0.275,737.3,01.18,0.508
2016-01-02 01:08:00,2327E-3,5C000000,-0724,0832,12144,016.7,045.2,0.275,737.4,01.18,0.508
2016-01-02 01:09:00,2386E-3,5C000000,-0724,0832,12122,016.7,045.2,0.275,737.2,01.18,0.508
2016-01-02 01:10:00,2384E-3,5C000000,-0724,0833,12135,016.7,045.2,0.275,737.1,01.18,0.508
2016-01-02 01:11:00,2530E-3,5C000000,-0724,0832,12139,016.7,045.2,0.275,737.1,01.18,0.508
2016-01-02 01:12:00,2553E-3,5C000000,-0724,0832,12197,016.7,045.2,0.275,737.0,01.18,0.508
2016-01-02 01:13:00,2304E-3,5C000000,-0724,0833,12181,016.7,045.2,0.275,737.1,01.18,0.508
2016-01-02 01:14:00,2406E-3,5C000000,-0724,0833,12224,016.7,045.2,0.275,737.1,01.18,0.508
2016-01-02 01:15:00,2345E-3,5C000000,-0724,0833,12176,016.7,045.2,0.275,737.2,01.18,0.508
2016-01-02 01:16:00,2463E-3,5C000000,-0724,0833,12167,016.7,045.2,0.275,737.2,01.18,0.508
2016-01-02 01:17:00,2418E-3,5C000000,-0724,0833,12360,016.7,045.2,0.275,737.1,01.18,0.508
2016-01-02 01:18:00,2432E-3,5C000000,-0724,0832,12265,016.7,045.2,0.275,737.0,01.18,0.508
2016-01-02 01:19:00,2418E-3,5C000000,-0724,0832,12152,016.7,045.2,0.275,737.0,01.18,0.508
2016-01-02 01:20:00,2355E-3,5C000400,-0724,0833,12108,016.7,045.2,0.274,737.0,01.18,0.508
2016-01-02 01:21:00,2408E-3,5C000000,-0724,0832,12275,016.7,045.2,0.275,736.9,01.18,0.508
2016-01-02 01:22:00,2348E-3,5C000000,-0724,0832,12160,016.7,045.2,0.275,736.9,01.18,0.508
2016-01-02 01:23:00,2445E-3,5C000000,-0724,0832,12153,016.7,045.2,0.275,736.9,01.18,0.508
2016-01-02 01:24:00,2493E-3,5C000000,-0724,0832,12223,016.7,045.2,0.275,736.9,01.18,0.508
2016-01-02 01:25:00,2453E-3,5C000400,-0724,0832,12258,016.7,045.2,0.274,737.1,01.18,0.508
2016-01-02 01:26:00,2414E-3,5C000400,-0724,0832,12231,016.7,045.2,0.274,737.2,01.18,0.508
2016-01-02 01:27:00,2381E-3,5C000400,-0724,0833,12209,016.7,045.2,0.274,737.2,01.18,0.508
2016-01-02 01:28:00,2386E-3,5C000400,-0724,0833,12277,016.7,045.2,0.274,737.2,01.18,0.508
2016-01-02 01:29:00,2369E-3,5C000000,-0724,0832,12123,016.7,045.2,0.275,737.1,01.18,0.508
2016-01-02 01:30:00,2564E-3,5C000000,-0724,0832,12057,016.7,045.2,0.275,737.2,01.18,0.508
2016-01-02 01:31:00,2516E-3,5C000000,-0724,0832,12173,016.7,045.2,0.275,737.3,01.18,0.508
2016-01-02 01:32:00,2559E-3,5C000000,-0724,0833,12121,016.7,045.2,0.275,737.2,01.18,0.508
2016-01-02 01:33:00,2495E-3,5C000000,-0724,0832,12132,016.7,045.2,0.275,737.4,01.18,0.508
2016-01-02 01:34:00,2451E-3,5C000000,-0724,0833,12180,016.7,045.2,0.275,737.2,01.18,0.508
2016-01-02 01:35:00,2481E-3,5C000400,-0724,0832,11975,016.7,045.2,0.274,737.3,01.18,0.508
2016-01-02 01:36:00,2414E-3,5C000000,-0724,0833,12161,016.7,045.2,0.275,737.0,01.18,0.508
2016-01-02 01:37:00,2432E-3,5C000000,-0724,0832,12305,016.7,045.2,0.275,736.9,01.18,0.508
2016-01-02 01:38:00,2400E-3,5C000400,-0724,0832,12156,016.7,045.2,0.274,736.9,01.18,0.508
2016-01-02 01:39:00,2508E-3,5C000000,-0724,0832,12119,016.7,045.2,0.275,736.7,01.18,0.508
2016-01-02 01:40:00,2383E-3,5C000000,-0724,0832,12163,016.7,045.2,0.275,736.9,01.18,0.508
2016-01-02 01:41:00,2469E-3,5C000000,-0724,0832,12051,016.7,045.2,0.275,736.7,01.18,0.508
2016-01-02 01:42:00,2440E-3,5C000000,-0724,0833,12148,016.7,045.2,0.274,736.7,01.18,0.508
2016-01-02 01:43:00,2470E-3,5C000000,-0724,0833,12142,016.7,045.2,0.275,736.8,01.18,0.508
2016-01-02 01:44:00,2468E-3,5C000000,-0724,0832,12135,016.7,045.2,0.274,736.7,01.18,0.508
2016-01-02 01:45:00,2351E-3,5C000000,-0724,0832,12248,016.7,045.2,0.275,736.8,01.18,0.508
2016-01-02 01:46:00,2452E-3,5C000000,-0724,0833,12141,016.7,045.2,0.274,736.7,01.18,0.508
2016-01-02 01:47:00,2472E-3,5C000000,-0724,0832,12272,016.7,045.2,0.275,736.7,01.18,0.508
2016-01-02 01:48:00,2494E-3,5C000400,-0724,0832,12142,016.7,045.2,0.275,736.7,01.18,0.508
2016-01-02 01:49:00,2368E-3,5C000000,-0724,0833,12247,016.7,045.2,0.275,736.9,01.18,0.508
2016-01-02 01:50:00,2421E-3,5C000000,-0724,0833,12153,016.7,045.2,0.275,736.9,01.18,0.508
2016-01-02 01:51:00,2456E-3,5C000000,-0724,0832,12090,016.7,045.2,0.275,736.9,01.18,0.508
2016-01-02 01:52:00,2370E-3,5C000000,-0724,0833,12255,016.7,045.2,0.275,736.9,01.18,0.508
2016-01-02 01:53:00,2335E-3,5C000000,-0724,0832,12200,016.6,045.2,0.275,737.0,01.18,0.508
2016-01-02 01:54:00,2471E-3,5C000000,-0724,0832,12208,016.7,045.2,0.275,736.9,01.18,0.508
2016-01-02 01:55:00,2418E-3,5C000000,-0724,0832,12068,016.6,045.2,0.275,736.9,01.18,0.508
2016-01-02 01:56:00,2357E-3,5C000000,-0724,0832,12124,016.6,045.2,0.275,736.8,01.18,0.508
2016-01-02 01:57:00,2446E-3,5C000000,-0724,0832,12211,016.7,045.2,0.275,736.7,01.18,0.508
2016-01-02 01:58:00,2539E-3,5C000400,-0724,0833,12186,016.6,045.2,0.275,736.8,01.18,0.508
2016-01-02 01:59:00,2496E-3,5C000000,-0724,0832,12219,016.7,045.2,0.274,736.7,01.18,0.508
2016-01-02 02:00:00,2313E-3,5C000000,-0724,0832,12281,016.6,045.2,0.275,736.9,01.18,0.508
2016-01-02 02:01:00,2292E-3,5C000000,-0724,0832,12055,016.7,045.2,0.275,736.8,01.18,0.508
2016-01-02 02:02:00,2370E-3,5C000000,-0724,0833,12165,016.7,045.2,0.274,736.7,01.18,0.508
2016-01-02 02:03:00,2304E-3,5C000000,-0724,0833,12052,016.7,045.2,0.275,736.7,01.18,0.508
2016-01-02 02:04:00,2358E-3,5C000400,-0724,0833,12184,016.7,045.2,0.275,736.9,01.18,0.508
2016-01-02 02:05:00,2637E-3,5C000000,-0724,0832,12149,016.7,045.1,0.275,736.9,01.18,0.508
2016-01-02 02:06:00,2343E-3,5C000000,-0724,0832,12176,016.6,045.2,0.275,736.8,01.18,0.508
2016-01-02 02:07:00,2452E-3,5C000000,-0724,0833,12192,016.6,045.2,0.274,737.1,01.18,0.508
2016-01-02 02:08:00,2426E-3,5C000000,-0724,0832,12144,016.7,045.2,0.275,737.2,01.18,0.508
2016-01-02 02:09:00,2500E-3,5C000000,-0724,0833,12063,016.7,045.2,0.275,737.4,01.18,0.508
2016-01-02 02:10:00,2286E-3,5C000000,-0724,0832,12197,016.7,045.2,0.275,737.3,01.18,0.508
2016-01-02 02:11:00,2399E-3,5C000000,-0724,0832,12278,016.7,045.2,0.275,737.3,01.18,0.508
2016-01-02 02:12:00,2510E-3,5C000000,-0724,0833,12170,016.7,045.2,0.275,737.4,01.18,0.508
2016-01-02 02:13:00,2398E-3,5C000000,-0724,0832,12139,016.7,045.2,0.275,737.3,01.18,0.508
2016-01-02 02:14:00,2355E-3,5C000000,-0724,0833,12098,016.7,045.2,0.275,737.2,01.18,0.508
2016-01-02 02:15:00,2330E-3,5C000000,-0724,0832,12215,016.7,045.2,0.275,737.2,01.18,0.508
2016-01-02 02:16:00,2419E-3,5C000000,-0724,0832,12216,016.7,045.2,0.275,737.2,01.18,0.508
2016-01-02 02:17:00,2522E-3,5C000400,-0724,0833,12028,016.7,045.2,0.275,737.3,01.18,0.508
2016-01-02 02:18:00,2282E-3,5C000000,-0724,0833,12020,016.7,045.2,0.275,737.3,01.18,0.508
2016-01-02 02:19:00,2537E-3,5C000000,-0724,0832,12151,016.7,045.2,0.275,737.3,01.18,0.508
2016-01-02 02:20:00,2527E-3,5C000000,-0724,0831,12188,016.7,045.2,0.275,737.3,01.18,0.508
2016-01-02 02:21:00,2587E-3,5C000000,-0724,0833,12284,016.7,045.2,0.275,737.3,01.18,0.508
2016-01-02 02:22:00,2411E-3,5C000000,-0724,0833,12098,016.7,045.2,0.275,737.2,01.18,0.508
2016-01-02 02:23:00,2325E-3,5C000000,-0724,0832,12061,016.7,045.2,0.275,737.2,01.18,0.508
2016-01-02 02:24:00,2331E-3,5C000000,-0724,0832,12197,016.7,045.2,0.275,737.3,01.18,0.508
2016-01-02 02:25:00,2403E-3,5C000000,-0724,0832,12234,016.7,045.2,0.275,737.2,01.18,0.508
2016-01-02 02:26:00,2439E-3,5C000000,-0724,0832,12099,016.7,045.2,0.275,737.4,01.18,0.508
2016-01-02 02:27:00,2348E-3,5C000000,-0724,0832,12156,016.8,045.2,0.275,737.3,01.18,0.508
2016-01-02 02:28:00,2417E-3,5C000000,-0724,0832,12218,016.8,045.2,0.275,737.3,01.18,0.508
2016-01-02 02:29:00,2358E-3,5C000000,-0724,0832,12191,016.7,045.2,0.275,737.3,01.18,0.508
2016-01-02 02:30:00,2401E-3,5C000000,-0724,0832,12210,016.8,045.1,0.275,737.2,01.18,0.508
2016-01-02 02:31:00,2419E-3,5C000400,-0724,0832,12152,016.8,045.2,0.274,737.1,01.18,0.508
2016-01-02 02:32:00,2387E-3,5C000000,-0724,0832,12312,016.8,045.2,0.275,737.2,01.18,0.508
2016-01-02 02:33:00,2621E-3,5C000000,-0724,0833,12270,016.8,045.2,0.275,737.2,01.18,0.508
2016-01-02 02:34:00,2434E-3,5C000000,-0724,0833,11988,016.8,045.2,0.275,737.1,01.18,0.508
2016-01-02 02:35:00,2516E-3,5C000400,-0724,0833,12292,016.8,045.2,0.274,737.2,01.18,0.508
2016-01-02 02:36:00,2399E-3,5C000000,-0724,0833,12028,016.8,045.2,0.275,737.3,01.18,0.508
2016-01-02 02:37:00,2483E-3,5C000000,-0724,0833,12216,016.8,045.2,0.275,737.4,01.18,0.508
2016-01-02 02:38:00,2494E-3,5C000400,-0724,0832,12203,016.8,045.2,0.274,737.3,01.18,0.508
2016-01-02 02:39:00,2302E-3,5C000000,-0724,0832,12168,016.8,045.2,0.275,737.5,01.18,0.508
2016-01-02 02:40:00,2391E-3,5C000400,-0724,0831,12042,016.8,045.2,0.274,737.5,01.18,0.508
2016-01-02 02:41:00,2402E-3,5C000000,-0724,0832,12141,016.8,045.2,0.275,737.4,01.18,0.508
2016-01-02 02:42:00,2531E-3,5C000400,-0724,0832,12053,016.8,045.2,0.274,737.2,01.18,0.508
2016-01-02 02:43:00,2460E-3,5C000000,-0724,0832,12184,016.8,045.2,0.275,737.3,01.18,0.508
2016-01-02 02:44:00,2491E-3,5C000400,-0724,0832,12371,016.8,045.2,0.274,737.3,01.18,0.508
2016-01-02 02:45:00,2515E-3,5C000000,-0724,0832,12038,016.8,045.2,0.275,737.2,01.18,0.508
2016-01-02 02:46:00,2458E-3,5C000000,-0724,0833,12041,016.8,045.2,0.275,737.2,01.18,0.508
2016-01-02 02:47:00,2472E-3,5C000000,-0724,0832,12094,016.8,045.2,0.275,737.2,01.18,0.508
2016-01-02 02:48:00,2462E-3,5C000000,-0724,0833,12260,016.8,045.2,0.275,737.3,01.18,0.508
2016-01-02 02:49:00,2364E-3,5C000400,-0724,0833,12047,016.8,045.2,0.274,737.4,01.18,0.508
2016-01-02 02:50:00,2486E-3,5C000000,-0724,0832,12204,016.9,045.2,0.275,737.4,01.18,0.508
2016-01-02 02:51:00,2441E-3,5C000000,-0724,0832,12072,016.8,045.2,0.275,737.4,01.18,0.508
2016-01-02 02:52:00,2536E-3,5C000400,-0724,0833,12288,016.8,045.2,0.274,737.3,01.18,0.508
2016-01-02 02:53:00,2581E-3,5C000000,-0724,0833,12179,016.8,045.2,0.275,737.3,01.18,0.508
2016-01-02 02:54:00,2526E-3,5C000000,-0724,0832,12273,016.8,045.2,0.275,737.2,01.18,0.508
2016-01-02 02:55:00,2446E-3,5C000000,-0724,0833,12086,016.8,045.2,0.275,737.3,01.18,0.508
2016-01-02 02:56:00,2477E-3,5C000400,-0724,0833,12295,016.8,045.2,0.274,737.4,01.18,0.508
2016-01-02 02:57:00,2517E-3,5C000000,-0724,0833,12125,016.8,045.2,0.275,737.2,01.18,0.508
2016-01-02 02:58:00,2423E-3,5C000000,-0724,0832,12100,016.8,045.2,0.275,737.4,01.18,0.508
2016-01-02 02:59:00,2361E-3,5C000400,-0724,0833,12311,016.8,045.2,0.274,737.3,01.18,0.508
2016-01-02 03:00:00,2470E-3,5C000000,-0724,0832,12170,016.8,045.2,0.275,737.3,01.18,0.508
2016-01-02 03:01:00,2283E-3,5C000000,-0724,0832,12165,016.9,045.2,0.275,737.2,01.18,0.508
2016-01-02 03:02:00,2516E-3,5C000400,-0724,0832,12140,016.9,045.2,0.274,737.3,01.18,0.508
2016-01-02 03:03:00,2473E-3,5C000000,-0724,0832,12172,016.8,045.2,0.275,737.4,01.18,0.508
2016-01-02 03:04:00,2290E-3,5C000000,-0724,0832,12198,016.9,045.2,0.275,737.4,01.18,0.508
2016-01-02 03:05:00,2440E-3,5C000400,-0724,0832,12205,016.9,045.2,0.274,737.5,01.18,0.508
2016-01-02 03:06:00,2449E-3,5C000000,-0724,0832,12087,016.9,045.2,0.275,737.3,01.18,0.508
2016-01-02 03:07:00,2402E-3,5C000000,-0724,0833,12145,016.9,045.1,0.275,737.2,01.18,0.508
2016-01-02 03:08:00,2341E-3,5C000400,-0724,0832,12208,016.8,045.2,0.274,737.3,01.18,0.508
2016-01-02 03:09:00,2535E-3,5C000000,-0724,0832,12194,016.8,045.2,0.275,737.3,01.18,0.508
2016-01-02 03:10:00,2445E-3,5C000400,-0724,0832,12170,016.8,045.2,0.274,737.3,01.18,0.508
2016-01-02 03:11:00,2382E-3,5C000000,-0724,0833,12096,016.9,045.2,0.275,737.2,01.18,0.508
2016-01-02 03:12:00,2233E-3,5C000000,-0724,0832,12072,016.9,045.2,0.275,737.3,01.18,0.508
2016-01-02 03:13:00,2362E-3,5C000000,-0724,0833,12130,016.9,045.2,0.275,737.1,01.18,0.508
2016-01-02 03:14:00,2332E-3,5C000000,-0724,0832,12268,016.9,045.2,0.275,736.9,01.18,0.508
2016-01-02 03:15:00,2333E-3,5C000000,-0724,0832,12127,016.9,045.2,0.275,737.0,01.18,0.508
2016-01-02 03:16:00,2362E-3,5C000000,-0724,0832,12124,016.9,045.2,0.275,736.9,01.18,0.508
2016-01-02 03:17:00,2508E-3,5C000400,-0724,0832,12359,016.9,045.2,0.274,737.0,01.18,0.508
2016-01-02 03:18:00,2222E-3,5C000400,-0724,0833,12143,016.9,045.2,0.274,737.1,01.18,0.508
2016-01-02 03:19:00,2517E-3,5C000000,-0724,0832,12162,016.8,045.2,0.275,736.9,01.18,0.508
2016-01-02 03:20:00,2409E-3,5C000000,-0724,0832,12267,016.9,045.2,0.275,737.1,01.18,0.508
2016-01-02 03:21:00,2310E-3,5C000000,-0724,0832,12186,016.9,045.2,0.275,737.0,01.18,0.508
2016-01-02 03:22:00,2437E-3,5C000400,-0724,0833,12129,016.8,045.2,0.274,737.1,01.18,0.508
2016-01-02 03:23:00,2364E-3,5C000000,-0724,0832,12222,016.9,045.2,0.275,737.1,01.18,0.508
2016-01-02 03:24:00,2406E-3,5C000000,-0724,0832,12043,016.9,045.2,0.275,737.1,01.18,0.508
2016-01-02 03:25:00,2416E-3,5C000000,-0724,0833,12169,016.9,045.2,0.275,737.2,01.18,0.508
2016-01-02 03:26:00,2524E-3,5C000000,-0724,0832,12128,016.9,045.2,0.275,737.0,01.18,0.508
2016-01-02 03:27:00,2388E-3,5C000000,-0724,0832,12012,016.9,045.2,0.275,737.2,01.18,0.508
2016-01-02 03:28:00,2576E-3,5C000000,-0724,0833,12120,016.9,045.2,0.275,737.2,01.18,0.508
2016-01-02 03:29:00,2506E-3,5C000400,-0724,0832,11933,016.9,045.2,0.274,737.2,01.18,0.508
2016-01-02 03:30:00,2461E-3,5C000400,-0724,0833,12166,016.9,045.2,0.274,737.1,01.18,0.508
2016-01-02 03:31:00,2469E-3,5C000000,-0724,0832,12285,016.9,045.2,0.275,737.1,01.18,0.508
2016-01-02 03:32:00,2235E-3,5C000400,-0724,0832,12213,016.9,045.2,0.274,737.2,01.18,0.508
2016-01-02 03:33:00,2335E-3,5C000000,-0724,0832,12038,016.9,045.2,0.275,737.1,01.18,0.508
2016-01-02 03:34:00,2344E-3,5C000000,-0724,0832,12129,016.9,045.2,0.275,737.2,01.18,0.508
2016-01-02 03:35:00,2392E-3,5C000400,-0724,0832,11924,016.9,045.2,0.274,737.2,01.18,0.508
2016-01-02 03:36:00,2488E-3,5C000400,-0724,0833,12157,016.9,045.2,0.274,737.2,01.18,0.508
2016-01-02 03:37:00,2446E-3,5C000000,-0724,0832,12095,016.9,045.2,0.275,737.2,01.18,0.508
2016-01-02 03:38:00,2341E-3,5C000000,-0724,0832,12152,016.9,045.2,0.275,737.2,01.18,0.508
2016-01-02 03:39:00,2221E-3,5C000400,-0724,0832,12190,016.9,045.2,0.274,737.2,01.18,0.508
2016-01-02 03:40:00,2431E-3,5C000000,-0724,0832,12280,016.9,045.2,0.275,737.1,01.18,0.508
2016-01-02 03:41:00,2209E-3,5C000000,-0724,0832,12218,016.9,045.2,0.275,737.0,01.18,0.508
2016-01-02 03:42:00,2416E-3,5C000400,-0724,0832,12108,016.9,045.2,0.274,737.2,01.18,0.508
2016-01-02 03:43:00,2426E-3,5C000000,-0724,0832,12210,016.9,045.2,0.275,737.2,01.18,0.508
2016-01-02 03:44:00,2276E-3,5C000000,-0724,0831,12157,016.9,045.2,0.275,737.1,01.18,0.508
2016-01-02 03:45:00,2513E-3,5C000400,-0724,0833,12225,016.9,045.2,0.274,737.2,01.18,0.508
2016-01-02 03:46:00,2444E-3,5C000000,-0724,0833,12231,016.9,045.2,0.275,737.0,01.18,0.508
2016-01-02 03:47:00,2340E-3,5C000400,-0724,0832,12271,016.9,045.2,0.274,737.1,01.18,0.508
2016-01-02 03:48:00,2401E-3,5C000000,-0724,0832,12071,016.9,045.2,0.275,737.1,01.18,0.508
2016-01-02 03:49:00,2574E-3,5C000400,-0724,0832,12131,016.9,045.2,0.274,737.2,01.18,0.508
2016-01-02 03:50:00,2705E-3,5C000000,-0724,0833,12161,016.9,045.2,0.275,737.2,01.18,0.508
2016-01-02 03:51:00,2543E-3,5C000400,-0724,0832,12003,016.9,045.2,0.274,737.1,01.18,0.508
2016-01-02 03:52:00,2389E-3,5C000400,-0724,0832,12170,016.9,045.1,0.274,737.2,01.18,0.508
2016-01-02 03:53:00,2391E-3,5C000000,-0724,0832,12210,016.9,045.2,0.275,737.2,01.18,0.508
2016-01-02 03:54:00,2388E-3,5C000400,-0724,0831,12092,016.9,045.2,0.274,737.2,01.18,0.508
2016-01-02 03:55:00,2451E-3,5C000000,-0724,0833,12171,016.9,045.2,0.275,737.0,01.18,0.508
2016-01-02 03:56:00,2329E-3,5C000400,-0724,0833,12133,016.9,045.2,0.274,737.0,01.18,0.508
2016-01-02 03:57:00,2447E-3,5C000400,-0724,0832,12237,016.9,045.2,0.274,737.0,01.18,0.508
2016-01-02 03:58:00,2441E-3,5C000400,-0724,0832,12227,016.9,045.2,0.274,737.2,01.18,0.508
2016-01-02 03:59:00,2454E-3,5C000400,-0724,0832,12297,016.9,045.2,0.274,737.1,01.18,0.508
2016-01-02 04:00:00,2437E-3,5C000400,-0724,0832,12221,016.9,045.2,0.274,737.1,01.18,0.508
2016-01-02 04:01:00,2349E-3,5C000000,-0724,0832,12093,016.9,045.2,0.275,737.1,01.18,0.508
2016-01-02 04:02:00,2447E-3,5C000400,-0724,0832,12356,016.9,045.2,0.274,737.1,01.18,0.508
2016-01-02 04:03:00,2334E-3,5C000400,-0724,0832,12057,016.9,045.2,0.274,736.9,01.18,0.508
2016-01-02 04:04:00,2403E-3,5C000000,-0724,0832,12223,016.9,045.2,0.275,736.9,01.18,0.508
2016-01-02 04:05:00,2478E-3,5C000000,-0724,0833,12209,016.9,045.2,0.275,737.1,01.18,0.508
2016-01-02 04:06:00,2354E-3,5C000000,-0724,0832,12146,016.9,045.2,0.275,737.1,01.18,0.508
2016-01-02 04:07:00,2356E-3,5C000400,-0724,0832,12124,016.9,045.2,0.274,737.0,01.18,0.508
2016-01-02 04:08:00,2377E-3,5C000000,-0724,0832,12163,016.9,045.2,0.275,737.1,01.18,0.508
2016-01-02 04:09:00,2414E-3,5C000400,-0724,0833,12299,016.9,045.2,0.274,737.0,01.18,0.508
2016-01-02 04:10:00,2364E-3,5C000400,-0724,0832,12218,016.9,045.2,0.274,737.2,01.18,0.508
2016-01-02 04:11:00,2459E-3,5C000400,-0724,0833,12109,016.9,045.2,0.274,737.1,01.18,0.508
2016-01-02 04:12:00,2506E-3,5C000400,-0724,0833,12085,016.9,045.2,0.274,737.3,01.18,0.508
2016-01-02 04:13:00,2510E-3,5C000000,-0724,0832,12208,016.9,045.2,0.275,737.2,01.18,0.508
2016-01-02 04:14:00,2540E-3,5C000000,-0724,0832,12197,016.9,045.2,0.275,737.1,01.18,0.508
2016-01-02 04:15:00,2340E-3,5C000000,-0724,0832,12169,016.9,045.2,0.275,737.3,01.18,0.508
2016-01-02 04:16:00,2492E-3,5C000000,-0724,0832,12140,016.9,045.2,0.275,737.2,01.18,0.508
2016-01-02 04:17:00,2404E-3,5C000400,-0724,0832,12144,016.9,045.2,0.274,737.3,01.18,0.508
2016-01-02 04:18:00,2363E-3,5C000400,-0724,0832,12105,016.9,045.2,0.274,737.3,01.18,0.508
2016-01-02 04:19:00,2570E-3,5C000000,-0724,0832,12183,017.0,045.2,0.275,737.4,01.18,0.508
2016-01-02 04:20:00,2490E-3,5C000400,-0724,0832,12213,016.9,045.2,0.274,737.4,01.18,0.508